sat.trackr.live / text

‹ back to catalog

STARLINK-36470

NORAD 67319 · 2026-002Q

PAYLOAD ACTIVE UNKNOWN

§ Identity

Operator
Country
US
Launch date
2026-01-04
Launch site
AFETR
Launch vehicle
Mass (kg)
RCS (m²)

Purposes: comms

External: N2YO · Heavens-Above · Gunter

§ Orbital elements

Epoch: 2026-05-24T17:05:35.788992Z

Period
94.27 min
Inclination
43.0022°
Eccentricity
0.0001452
Mean motion
15.27599306 rev/d
Perigee alt
482.0 km
Apogee alt
484.0 km
Semi-major
6,861.1 km
B*
5.5981e-4
RAAN
256.1028°
Arg perigee
265.8660°
Mean anomaly
94.2026°
Rev number
2,276

§ Raw data

STARLINK-364701 67319U 26002Q   26144.71221978  .00015183  00000+0  55981-3 0  99982 67319  43.0022 256.1028 0001452 265.8660  94.2026 15.27599306 22765

JSON: /api/v1/satellites/67319 · /tle

For live sub-satellite position, see the globe view (requires WebGL).

§ Visibility from observer

Set your observer location to see the next 7 days of passes ≥ 10°. The values pass through the URL so the page stays shareable.

No JS? Fill the form by hand. The geolocation button needs JavaScript.